Regional Weather Roundup
Issued by NWS

Home | Current Version | Previous Version | Graphics & Text | Print | Product List | Glossary On
Versions: 1 2 3 4 5 6 7 8 9 10 11 12 13 14 15 16 17 18 19 20 21 22 23 24 25 26 27 28 29 30 31 32 33 34 35 36 37 38 39 40 41 42 43 44 45 46 47 48 49 50
000
ASUS43 KFSD 281010
RWRSD

WEATHER ROUNDUP FOR SOUTH DAKOTA
NATIONAL WEATHER SERVICE SIOUX FALLS SD
400 AM CST SAT FEB 28 2015

NOTE: "FAIR" INDICATES FEW OR NO CLOUDS BELOW 12,000 FEET WITH NO
SIGNIFICANT WEATHER AND/OR OBSTRUCTIONS TO VISIBILITY.


SDZ001>005-009-010-012>017-281100-
NORTHWEST AND NORTH CENTRAL SOUTH DAKOTA

CITY           SKY/WX    TMP DP  RH WIND       PRES   REMARKS
BUFFALO          N/A     10   5  80 NW8       29.92F WCI  -2
FAITH            N/A     11   4  73 S15       30.01F WCI  -5
MOBRIDGE       PTCLDY    10   2  69 SE10      30.09F WCI  -4
$$

SDZ012>016-024>037-041>051-057-063-072>074-281100-
SOUTHWEST AND SOUTH CENTRAL SOUTH DAKOTA

CITY           SKY/WX    TMP DP  RH WIND       PRES   REMARKS
RAPID CTY ARPT CLEAR      7   3  84 CALM      30.00S
PIERRE         CLEAR     11   2  67 S16       30.15F WCI  -6
CUSTER         CLEAR      2  -3  80 CALM      29.84F
ELLSWORTH AFB  CLEAR      9   4  80 N9        29.98S WCI  -4
PHILIP         CLEAR     12   4  70 CALM      30.08F
PINE RIDGE     CLEAR     11   4  73 S13       30.03S WCI  -4
WINNER         FAIR      12   0  58 S12       30.19F WCI  -2
$$

SDZ004>011-016>023-039-040-281100-
NORTHEAST SOUTH DAKOTA

CITY           SKY/WX    TMP DP  RH WIND       PRES   REMARKS
ABERDEEN       PTCLDY     8   0  69 S16       30.24F WCI -10
WATERTOWN      PTCLDY    -1  -6  79 S12       30.27F WCI -18
$$

SDZ017-020-022-023-036>040-048>070-281100-
SOUTHEAST SOUTH DAKOTA

CITY           SKY/WX    TMP DP  RH WIND       PRES   REMARKS
SIOUX FALLS    CLEAR      5  -2  72 S13       30.38F WCI -12
HURON          PTCLDY     6   0  76 SE14G22   30.28F WCI -11
CHAMBERLAIN    CLEAR     11   1  62 S10       30.23F WCI  -3
MITCHELL       CLEAR      8   1  73 S13       30.33F WCI  -8
YANKTON        CLEAR      7   0  72 SE5       30.40F WCI  -2
$$

ABBREVIATIONS USED IN REMARKS
   TC - TEMPERATURE IN CELSIUS
  WCI - WIND CHILL INDEX
   HX - HEAT INDEX
  VSB - VISIBILITY




USA.gov is the U.S. government's official web portal to all federal, state and local government web resources and services.